Location: Brahman Valley
(40.6513°N, 111.8855°W)
Time: 22:06:53
(UTC+00:00)

Vanguard 2 - Pass Details

Date: 18 May 2021
Orbit: 552 x 2937 km, 32.9° (Epoch: 14 June)

Event Time Altitude Azimuth Distance (km) Brightness Sun altitude
Rises 09:13:39 0° 187° (S) 3,281 - -24.5°
Reaches altitude 10° 09:17:43 10° 155° (SSE) 2,743 - -24.2°
Exits shadow 09:19:02 12° 143° (SE) 2,759 10.1 -24.0°
Maximum altitude 09:20:04 12° 134° (SE) 2,839 10.3 -23.9°
Drops below altitude 10° 09:22:46 10° 114° (ESE) 3,274 10.8 -23.7°
Sets 09:29:00 0° 88° (E) 4,909 12.1 -23.1°
